Skip Page Navigation
NASA JPL Caltech
NASA Logo - Jet Propulsion Laboratory + View the NASA Portal
+ Near-Earth Object (NEO) Program
Search JPL
JPL Home Earth Solar System Stars & Galaxies Technology
JPL Solar System Dynamics
BODIES ORBITS EPHEMERIDES TOOLS PHYSICAL DATA DISCOVERY FAQ SITE MAP
JPL Small-Body Database Browser
Search: [ help ]  
154269 (2002 SM)
Classification: Apollo [NEO, PHA]          SPK-ID: 2154269
Ephemeris | Orbit Diagram | Orbital Elements | Physical Parameters | Discovery Circumstances | Close-Approach Data ]

[ hide orbit diagram ]
Orbit Diagram
Note: Make sure you have Java enabled on your browser to see the applet. This applet is provided as a 3D orbit visualization tool. The applet was implemented using 2-body methods, and hence should not be used for determining accurate long-term trajectories (over several years or decades) or planetary encounter circumstances. For accurate long-term ephemerides, please instead use our Horizons system.
Orbit Viewer

Additional Notes: the orbits shown in the applet are color coded. The planets are white lines, and the asteroid/comet is a blue line. The bright white line indicates the portion of the orbit that is above the ecliptic plane, and the darker portion is below the ecliptic plane. Likewise for the asteroid/comet orbit, the light blue indicates the portion above the ecliptic plane, and the dark blue the portion below the ecliptic plane.

Orbit Viewer applet originally written and kindly provided by Osamu Ajiki (AstroArts), and further modified by Ron Baalke (JPL).


Orbital Elements at Epoch 2456400.5 (2013-Apr-18.0) TDB
Reference: JPL 46 (heliocentric ecliptic J2000)
 Element Value Uncertainty (1-sigma)   Units 
e .48659971302314 1.6408e-07  
a 1.871230178721974 4.3588e-08 AU
q .9606901107556224 3.2605e-07 AU
i 14.43491046027193 1.6199e-05 deg
node 10.96193614447314 4.4079e-05 deg
peri 217.1771366879775 4.4492e-05 deg
M 123.9113890940976 3.9848e-05 deg
tp 2456078.691158954670
(2012-May-31.19115895)
9.2869e-05 JED
period 934.9518524753361
2.56
3.2668e-05
8.944e-08
d
yr
n .3850465658171384 1.3454e-08 deg/d
Q 2.781770246688326 6.4798e-08 AU
  Orbit Determination Parameters
   # obs. used (total)      180  
   data-arc span      3477 days (9.52 yr)  
   first obs. used      2002-09-13  
   last obs. used      2012-03-21  
   planetary ephem.      DE405  
   SB-pert. ephem.      SB405-CPV-2  
   condition code      0  
   fit RMS      .65  
   data source      ORB  
   producer      Otto Matic  
   solution date      2013-Apr-29 15:39:27  

Additional Information
 Earth MOID = .0223535 AU 
 T_jup = 3.795 
[ show covariance matrix ]

Ephemeris | Orbit Diagram | Orbital Elements | Physical Parameters | Discovery Circumstances | Close-Approach Data ]

Physical Parameter Table
Parameter Symbol Value Units Sigma Reference Notes
absolute magnitude H 17.855 mag .46482 46 autocmod 2.5c

154269 (2002 SM)          Discovered 2002-Sep-16 by NEAT at Palomar (644)
Reference: 20070402/Numbers.arcLast Updated: 2007-04-04

[ show close-approach data ]
Ephemeris | Orbit Diagram | Orbital Elements | Physical Parameters | Discovery Circumstances | Close-Approach Data ]
ABOUT SSD CREDITS/AWARDS PRIVACY/COPYRIGHT GLOSSARY LINKS
FirstGov 2013-May-26 09:42 UT
(server date/time)  
NASA Home Page
Site Manager:   Donald K. Yeomans
Webmaster  Alan B. Chamberlin